EDT,Max TemperatureF,Mean TemperatureF,Min TemperatureF,Max Dew PointF,MeanDew PointF,Min DewpointF,Max Humidity, Mean Humidity, Min Humidity, Max Sea Level PressureIn, Mean Sea Level PressureIn, Min Sea Level PressureIn, Max VisibilityMiles, Mean VisibilityMiles, Min VisibilityMiles, Max Wind SpeedMPH, Mean Wind SpeedMPH, Max Gust SpeedMPH,PrecipitationIn, CloudCover, Events, WindDirDegrees
2012-9-1,91,82,73,74,72,70,93,77,50,30.18,30.13,30.05,10,10,9,9,5,,0.00,0,,251
2012-9-2,91,82,72,73,71,70,93,79,52,30.08,30.03,29.97,10,10,8,16,4,24,0.01,1,Rain-Thunderstorm,230
2012-9-3,91,80,71,74,72,70,100,88,57,30.03,29.99,29.93,10,8,0,14,6,25,0.60,4,Fog-Rain-Thunderstorm,188
2012-9-4,86,78,73,73,72,71,97,89,67,30.01,29.97,29.92,10,8,1,17,5,23,0.25,6,Rain-Thunderstorm,176
2012-9-5,86,78,71,72,71,70,100,87,65,30.02,29.96,29.90,10,8,5,10,4,,0.03,6,,207
2012-9-6,87,80,73,74,71,69,93,81,61,30.01,29.95,29.90,10,10,10,10,6,,0.00,5,Thunderstorm,229
2012-9-7,88,78,69,73,71,68,97,82,57,30.01,29.94,29.87,10,10,6,8,2,,0.00,2,,32
2012-9-8,87,78,70,75,72,68,97,85,65,29.87,29.82,29.74,10,9,2,10,4,,0.08,3,Rain-Thunderstorm,215
2012-9-9,80,70,61,64,59,53,93,68,42,30.03,29.92,29.84,10,10,10,14,6,21,0.00,3,,24
2012-9-10,82,68,55,62,57,54,97,71,39,30.15,30.10,30.03,10,10,9,7,1,,0.00,1,,52
2012-9-11,80,68,57,62,59,56,93,78,45,30.31,30.24,30.16,10,10,9,8,1,,0.00,4,,80
2012-9-12,81,68,57,62,58,55,93,73,42,30.37,30.30,30.26,10,9,5,12,2,16,0.00,2,,67
2012-9-13,80,67,54,61,58,53,97,77,48,30.35,30.29,30.24,10,9,6,9,2,,0.01,4,,46
2012-9-14,82,72,63,63,61,59,93,73,44,30.27,30.22,30.17,10,10,10,8,2,,0.00,4,,26
2012-9-15,84,72,61,66,62,60,97,70,44,30.20,30.14,30.10,10,10,10,6,1,,0.00,1,,94
2012-9-16,82,73,64,69,65,62,93,79,54,30.15,30.10,30.04,10,10,9,6,1,,0.01,4,Rain,300
2012-9-17,84,76,69,71,69,67,100,86,55,30.08,30.03,29.89,10,7,4,13,2,17,0.01,6,,151
2012-9-18,79,74,68,72,70,66,94,90,74,29.89,29.79,29.73,10,8,0,24,12,37,0.73,7,Fog-Rain-Thunderstorm,201
2012-9-19,78,68,59,65,59,56,93,74,54,30.12,30.02,29.88,10,10,10,10,4,,0.01,1,,38
2012-9-20,79,66,55,63,58,55,97,76,50,30.17,30.11,30.06,10,10,9,6,2,,0.00,0,,50
2012-9-21,82,70,57,65,61,56,97,77,51,30.11,30.06,30.00,10,10,7,9,2,,0.00,1,,212
2012-9-22,86,75,64,65,63,60,93,70,43,30.05,30.00,29.95,10,10,7,15,7,20,0.00,0,,234
2012-9-23,80,66,53,62,50,43,89,58,30,30.15,30.08,30.02,10,10,10,7,2,,0.00,1,,318
2012-9-24,75,62,52,52,46,42,86,61,35,30.24,30.18,30.12,10,10,10,10,4,17,0.00,0,,33
2012-9-25,79,64,48,59,53,47,93,73,42,30.26,30.22,30.19,10,10,10,6,1,,0.00,2,,110
2012-9-26,82,68,53,58,56,51,97,71,38,30.26,30.20,30.16,10,10,8,7,1,,0.00,0,,201
2012-9-27,84,70,55,67,61,54,100,80,37,30.24,30.18,30.11,10,8,0,7,1,,0.00,4,Fog,249
2012-9-28,87,72,60,65,61,57,93,72,44,30.13,30.07,29.99,10,10,7,9,2,,0.00,1,,253
2012-9-29,78,72,64,67,65,63,96,84,66,30.02,29.95,29.87,10,10,7,7,2,,0.00,2,Rain,246
2012-9-30,73,66,60,66,63,57,100,91,63,29.94,29.90,29.85,10,6,1,8,4,,0.12,6,Rain,53